FW6724 Weather Reports


Display with metric or nautical units.
time (UTC)temp
F
wind
direction
speed
MPH
gust
MPH
rain 1hr
in
rain 24hr
in
rain mn
in
humidity
%
barometer
mb
20260504190041 76 73 2.0 6.0 0.00 0.02 0.02 37 1010.6
20260504184534 77 302 1.0 5.0 0.00 0.02 0.02 38 1010.3
20260504183037 77 149 1.0 8.0 0.00 0.02 0.02 34 1010.2
20260504181536 78 154 4.0 10.0 0.00 0.02 0.02 33 1010.0
20260504180036 79 141 3.0 9.0 0.00 0.02 0.02 31 1009.9
20260504174535 79 184 4.0 10.0 0.00 0.02 0.02 30 1009.9
20260504173043 80 205 4.0 7.0 0.00 0.02 0.02 29 1010.0
20260504171539 80 241 3.0 11.0 0.00 0.02 0.02 29 1010.0
20260504081537 64 0 0.0 0.0 0.00 0.02 0.02 74 1013.6
20260504044541 63 0 0.0 0.0 0.00 0.02 0.02 72 1012.8
20260504043035 63 0 0.0 0.0 0.00 0.02 0.02 72 1012.8
20260504041537 63 0 0.0 0.0 0.00 0.02 0.02 72 1012.9
20260504040038 63 0 0.0 0.0 0.00 0.02 0.02 72 1012.9
20260504034540 63 0 0.0 0.0 0.00 0.02 0.02 72 1013.0
20260504033048 63 0 0.0 0.0 0.00 0.02 0.02 71 1013.2
20260504031534 63 0 0.0 0.0 0.00 0.02 0.02 71 1013.3
20260504030035 63 0 0.0 0.0 0.00 0.02 0.02 71 1013.5
20260504024535 63 0 0.0 0.0 0.00 0.02 0.02 71 1013.6
20260504023036 63 0 0.0 0.0 0.00 0.02 0.02 70 1013.6
20260504021536 63 0 0.0 0.0 0.00 0.02 0.02 70 1013.6
20260504020035 63 0 0.0 0.0 0.00 0.01 0.01 70 1013.7
20260504014536 63 0 0.0 0.0 0.01 0.01 0.01 70 1013.7
20260504013042 63 0 0.0 0.0 0.01 0.01 0.01 69 1013.8
20260504011536 64 0 0.0 0.0 0.01 0.01 0.01 69 1013.9
20260504010047 64 0 0.0 0.0 0.00 0.00 0.00 68 1013.9
20260504004536 64 0 0.0 0.0 0.00 0.00 0.00 68 1014.0
20260504003039 64 0 0.0 0.0 0.00 0.00 0.00 68 1014.1
20260504001554 64 0 0.0 0.0 0.00 0.00 0.00 67 1014.1
20260504000041 65 0 0.0 5.0 0.00 0.00 0.00 68 1014.0
20260503234536 65 0 0.0 1.0 0.00 0.00 0.00 67 1014.2
20260503233039 65 144 0.0 4.0 0.00 0.00 0.00 67 1014.2
20260503231534 65 0 0.0 0.0 0.00 0.00 0.00 67 1014.3
20260503230033 65 0 0.0 0.0 0.00 0.00 0.00 67 1014.5
20260503224538 65 0 0.0 0.0 0.00 0.00 0.00 67 1014.5
20260503223039 65 0 0.0 0.0 0.00 0.00 0.00 67 1014.6
20260503221541 65 0 0.0 0.0 0.00 0.00 0.00 66 1014.7
20260503220047 65 0 0.0 0.0 0.00 0.00 0.00 66 1014.9
20260503214537 65 76 2.0 4.0 0.00 0.00 0.00 66 1015.0
20260503213038 66 76 2.0 7.0 0.00 0.00 0.00 64 1015.1
20260503211545 66 98 2.0 7.0 0.00 0.00 0.00 64 1015.0
20260503210033 66 81 3.0 8.0 0.00 0.00 0.00 63 1015.0
20260503204534 66 100 2.0 7.0 0.00 0.00 0.00 64 1014.9
20260503203035 66 82 3.0 8.0 0.00 0.00 0.00 64 1014.8
20260503201537 66 109 2.0 10.0 0.00 0.00 0.00 63 1014.4
20260503200038 66 128 5.0 10.0 0.00 0.00 0.00 63 1014.2
20260503194535 66 145 3.0 9.0 0.00 0.00 0.00 62 1014.0
20260503193042 66 131 3.0 11.0 0.00 0.00 0.00 62 1013.4
20260503191536 66 165 5.0 11.0 0.00 0.00 0.00 61 1013.2